Location: Phoenix
(33.4480°N, 112.0730°W)
Time: 03:06:41
(UTC-07:00)

ISS - All Passes

Search period start: 21 September 2014 00:00
Search period end: 01 October 2014 00:00
Orbit: 413 x 417 km, 51.6° (Epoch: 21 September)

Date Brightness Start Highest point End Pass type
(mag) Time Alt. Az. Time Alt. Az. Time Alt. Az.
21 Sep - 00:55:27 10° SSW 00:58:35 41° SE 01:01:45 10° ENE night (unlit)
21 Sep - 02:33:06 10° WNW 02:35:26 18° NNW 02:37:46 10° NNE night (unlit)
21 Sep - 07:28:49 10° N 07:29:59 11° NNE 07:31:09 10° NE daylight
21 Sep - 09:03:47 10° NW 09:07:06 89° SW 09:10:25 10° SE daylight
22 Sep - 00:07:15 10° S 00:09:49 21° SE 00:12:24 10° ENE night (unlit)
22 Sep - 01:43:28 10° W 01:46:24 28° NW 01:49:20 10° NNE night (unlit)
22 Sep - 08:14:59 10° NW 08:18:12 45° NE 08:21:23 10° ESE daylight
22 Sep - 09:53:04 10° W 09:54:34 13° SW 09:56:03 10° SSW daylight
22 Sep - 23:20:14 10° SE 23:21:04 11° SE 23:21:55 10° ESE night (unlit)
23 Sep - 00:54:09 10° WSW 00:57:24 52° NW 01:00:39 10° NE night (unlit)
23 Sep - 07:26:21 10° NNW 07:29:10 25° NE 07:31:59 10° E daylight
23 Sep - 09:03:03 10° WNW 09:05:48 24° SW 09:08:32 10° S daylight
24 Sep - 00:05:08 10° SW 00:08:26 76° SE 00:11:45 10° NE night (unlit)
24 Sep - 01:43:57 10° WNW 01:45:29 13° NNW 01:47:01 10° N night (unlit)
24 Sep - 06:37:54 10° N 06:40:02 16° NNE 06:42:09 10° ENE daylight
24 Sep - 08:13:42 10° WNW 08:16:55 49° SW 08:20:08 10° SSE daylight
24 Sep - 23:16:26 10° SSW 23:19:30 35° SE 23:22:34 10° ENE night (unlit)
25 Sep - 00:53:47 10° W 00:56:16 19° NW 00:58:46 10° NNE night (unlit)
25 Sep - 05:50:07 10° NNE 05:50:47 10° NNE 05:51:26 10° NE visible
25 Sep - 07:24:38 10° NW 07:27:57 78° NE 07:31:15 10° SE daylight
25 Sep - 22:28:15 10° S 22:30:36 18° SE 22:32:57 10° E night (unlit)
26 Sep - 00:04:05 10° WSW 00:07:06 32° NW 00:10:08 10° NNE night (unlit)
26 Sep - 06:35:43 10° NNW 06:38:52 39° NE 06:42:00 10° ESE daylight
26 Sep - 08:13:23 10° W 08:15:17 15° SW 08:17:12 10° SSW daylight
26 Sep - 23:14:41 10° SW 23:17:58 62° NW 23:21:16 10° NE night (unlit)
27 Sep - 05:46:59 10° NNW 05:49:41 22° NE 05:52:22 10° E visible
27 Sep - 07:23:27 10° WNW 07:26:21 28° SW 07:29:14 10° S daylight
27 Sep - 22:25:36 10° SW 22:28:52 63° SE 22:32:10 10° NE night (unlit)
28 Sep - 00:04:02 10° WNW 00:05:51 14° NNW 00:07:40 10° N night (unlit)
28 Sep - 04:58:28 10° N 05:00:22 14° NNE 05:02:16 10° ENE visible
28 Sep - 06:34:03 10° NW 06:37:19 59° SW 06:40:34 10° SSE daylight
28 Sep - 21:36:52 10° SSW 21:39:48 30° SE 21:42:46 10° ENE night (unlit)
28 Sep - 23:13:52 10° W 23:16:30 22° NW 23:19:09 10° NNE night (unlit)
29 Sep - 05:44:52 10° NW 05:48:11 66° NE 05:51:28 10° SE visible
29 Sep - 20:48:44 10° SSE 20:50:46 15° SE 20:52:49 10° E night (unlit)
29 Sep - 22:24:05 10° WSW 22:27:12 37° NW 22:30:19 10° NNE night (unlit)
30 Sep - 04:55:52 10° NNW 04:58:56 33° NE 05:01:59 10° ESE visible
30 Sep - 06:33:09 10° W 06:35:24 17° SW 06:37:39 10° S daylight
30 Sep - 21:34:38 10° SW 21:37:56 74° NW 21:41:15 10° NE night (unlit)
30 Sep - 23:14:47 10° NNW 23:15:07 10° NNW 23:15:27 10° NNW night (unlit)
